Погода в Джалинде

Погода в Джалинде : погода сейчас, прогноз погоды и архив. Всё, что Вы хотите узнать о погоде в Джалинде!

Поиск расширенной информации на нашем сайте:

Другие новости

Новости СМИ2

Главная страница сайта

Новости сайта

03.07.2017

Напоминаем, что на нашем специализированном сайте Метеоцентр.Азия вы можете получить высокодетализированные автоматические прогнозы погоды по пунктам России, СНГ и мира в авиационном формате (включающие направление и скорость ветра, видимость, явления погоды, количество и форму облачности, нижнюю и верхнюю границу облачности).


Погода в Джалинде - сегодня

Время (UTC), дата Ветер
(°,м/с) 
Видим.   Явления Облачность Т
(°С)
Тd
(°С)
f(%) Тe
(°С)
Pmin
(гПа)
dP
(гПа)
Po
(мм)
O2
(г/м3)
Тmin Tmax R s Состояние
почвы
06 15.04.18 330 (СЗ) 20000 м    ясно 
+12.8 -12.4 16 +13  1007.5  -3.1  732  283           
09 15.04.18 330 (СЗ) 20000 м    4/0 верхняя 
[Ci fib]
+13.4 -11.9 16 +14  1005.4  -1.9  731  282           
15 15.04.18 140 (ЮВ) 20000 м    ясно 
-3.4 -8.9 66 -5  1006.4  -0.8  730  299           
18 15.04.18 130 (ЮВ) 20000 м    ясно 
-1.9 -10 54 -3  1004.9  -1.3  729  297           
21 15.04.18 140 (ЮВ) 20000 м    6/0 верхняя 
[Ci]
-5.4 -9 76 -7  1004.7  -0.6  728  300           
00 16.04.18 160 (Ю) 20000 м    6/0 средняя, верхняя 
[Ac trans|Ci]
+2.4 -8.9 43 +1  1003.8  0.1  729  292  -5.8        сухая 
03 16.04.18 150 (ЮВ) 20000 м    1/0 средняя 
[Ac trans]
+15.4 -9.3 17 +16  999.4  -2.8  726  278           
06 16.04.18 220 (ЮЗ) 20000 м    10/0 средняя, верхняя 
[Ac trans|Ci]
+17.9 -9.4 15 +18  997.2  -1.8  725  275           
09 16.04.18 330 (СЗ) 20000 м    10/3 600 м кучево-дожд., верхняя 
[Cb cap|Ci]
+17.9 -8.4 16 +19  996.7  -0.5  725  275           
18 16.04.18 310 (СЗ) 4{11}  20000 м    ясно 
+0.3 -5 68 -2  1007.7  2.5  731  295           
03 17.04.18 350 (С) 5{10}  20000 м    ясно 
+8.1 -11.6 23 +7  1010.3  0.2  734  288           
06 17.04.18 320 (СЗ) 4{11}  20000 м    ясно 
+10.7 -13 18 +10  1008.6  -1.3  733  285           
09 17.04.18 330 (СЗ) 3{11}  20000 м    ясно 
+10.3 -14.2 16 +10  1008.7  733  286           
15 17.04.18 010 (С) 20000 м    ясно 
-2.8 -12 49 -4  1012.9  0.7  735  300           
18 17.04.18 330 (СЗ) 20000 м    ясно 
-6.1 -10.9 69 -8  1013.3  735  304           
21 17.04.18 тихо ()   20000 м    8/0 верхняя 
[Ci]
-8.9 -10.9 85 -9  1014.2  0.5  735  307           
00 18.04.18 180 (Ю) 20000 м    8/0 верхняя 
[Cs]
+1 -10 44 +2  1013.5  0.5  735  296  -8.9        сухая 
03 18.04.18 180 (Ю) 20000 м    3/0 верхняя 
[Ci]
+9.7 -12.6 19 +10  1010.4  -2  734  287           
06 18.04.18 120 (ЮВ) 20000 м    3/0 верхняя 
[Ci]
+14.5 -12.4 14 +15  1006.9  -2.9  732  281           
09 18.04.18 160 (Ю) 20000 м    4/0 верхняя 
[Ci]
+14.5 -11.5 15 +15  1005.2  -1.5  731  280           
15 18.04.18 140 (ЮВ) 20000 м    4/0 средняя, верхняя 
[Ac lent|Ci]
+2.9 -10.7 36 +2  1006.5  -0.1  731  292           
18 18.04.18 140 (ЮВ) 20000 м    10/0 средняя, верхняя 
[Ac trans|Ci]
+0.8 -8.5 50 1005.8  -0.8  730  294           
21 18.04.18 130 (ЮВ) 20000 м    10/3 1000 м средняя, верхняя 
[Sc|Ac trans|Ci]
+0.3 -9.8 47 1005.2  -0.7  729  294           
00 19.04.18 040 (СВ) 20000 м  слаб. ливневой дождь  10/8 600 м кучево-дожд., средняя 
[Cb cap|Ac trans]
+5 -7 41 +6  1004.1  -0.5  729  289  -0.5    0.0    сухая 
09 19.04.18 330 (СЗ) 5{14}  20000 м    10/0 верхняя 
[Cs]
+8.6 -11.3 23 +7  1011.3  1.6  735  288           
Время (UTC), дата Ветер
(°,м/с) 
Видим.   Явления Облачность Т
(°С)
Тd
(°С)
f(%) Тe
(°С)
Pmin
(гПа)
dP
(гПа)
Po
(мм)
O2
(г/м3)
Тmin Tmax R s Состояние
почвы

Для получения пояснительной информации подведите курсор к названию столбца.

ПОГОДА в Джалинде - архив

Всё, что Вы хотите узнать о погоде в Джалинде - удобно и подробно!

Выберите нужную дату (начиная с 1 января 2015* года) и нажмите кнопку "Найти".
Будут отображены архивные сводки погоды по пункту Джалинда, начиная с указанной даты.


Отображать данные в формате CSV (для использования в таблицах Excel)


Внимание! Наш архив погоды предназначен исключительно для личного некоммерческого использования в познавательных целях. Если Вам необходимы официальные справки о состоянии погоды (для производственных, юридических, коммерческих и т.п. целей), обращайтесь в органы Росгидромета.

*Примечание: данная дата относится к архиву по метеостанциям СССР (Россия, СНГ, Балтия).
Архив по метеостанциям Зарубежной Европы и Азии (кроме Китая) хранится 10 дней, по другим регионам земного шара (Китай, Африка, Америка, Австралия, Океания) - 1 день.

Джалинда - район местоположения метеостанции


Название, широта, долгота, высота метеостанции:
Джалинда 53.5°ш. 123.9°д. 266 м над ур. моря [Российская Федерация]

Дополнительная информация

В oтличие oт бoльшинства пoгoдных сайтoв мы публикуем пoдрoбную метеoинфoрмацию в детальнoм прoфессиoнальнoм фoрмате.

Характеристики температуры и влажнoсти вoздуха измеряются на высoте 2 м в тени вдали oт зданий и деревьев.
Скoрoсть ветра измеряется на высoте 10 м (на урoвне рoста челoвека скoрoсть ветра ниже в 1.5-2 раза). Если метеoстанция нахoдится в гoрoде или в лесу, тo скoрoсть ветра занижена на 2-4 м/с пo сравнению с oткрытым местoм. Скoрoсть ветра над акватoриями крупных рек и oзёр, а также на вершинах хoлмoв на 2-5 м/с выше, чем в oбычных услoвиях.
Атмoсфернoе давление в разных тoчках местнoсти мoжет значительнo oтличаться oт давления на метеoстанции, в зависимoсти oт услoвий рельефа (при пoдъёме на 10 м давление пoнижается примернo на 1 мм рт.ст.).